TimeEDT,TemperatureF,Dew PointF,Humidity,Sea Level PressureIn,VisibilityMPH,Wind Direction,Wind SpeedMPH,Gust SpeedMPH,PrecipitationIn,Events,Conditions,WindDirDegrees,DateUTC
12:09 AM,71.6,68.0,88,30.08,10.0,South,6.9,-,0.00,,Overcast,170,2013-06-10 04:09:00
12:32 AM,71.6,68.0,88,30.08,10.0,South,5.8,-,0.00,,Overcast,170,2013-06-10 04:32:00
12:38 AM,71.6,68.0,88,30.08,10.0,SSE,6.9,-,0.00,,Overcast,160,2013-06-10 04:38:00
12:53 AM,71.1,69.1,93,30.04,10.0,SSE,5.8,-,0.00,,Overcast,160,2013-06-10 04:53:00
1:29 AM,69.8,68.0,94,30.07,10.0,South,8.1,-,0.08,Rain,Light Rain,170,2013-06-10 05:29:00
1:37 AM,69.8,68.0,94,30.07,9.0,South,6.9,-,0.08,Rain,Light Rain,180,2013-06-10 05:37:00
1:53 AM,70.0,68.0,93,30.03,10.0,South,6.9,-,0.08,,Overcast,190,2013-06-10 05:53:00
2:37 AM,69.8,66.2,88,30.06,10.0,South,8.1,-,N/A,,Overcast,180,2013-06-10 06:37:00
2:53 AM,69.1,66.9,93,30.01,10.0,South,8.1,-,N/A,,Overcast,170,2013-06-10 06:53:00
3:48 AM,69.8,66.2,88,30.05,10.0,South,9.2,-,N/A,,Overcast,190,2013-06-10 07:48:00
3:53 AM,69.1,66.9,93,30.00,10.0,South,9.2,-,N/A,,Overcast,190,2013-06-10 07:53:00
4:00 AM,69.8,66.2,88,30.05,10.0,SSW,6.9,-,N/A,,Overcast,200,2013-06-10 08:00:00
4:24 AM,69.8,66.2,88,30.05,10.0,SSW,5.8,-,N/A,,Overcast,200,2013-06-10 08:24:00
4:53 AM,69.1,66.0,90,30.01,10.0,SSW,6.9,-,N/A,,Overcast,210,2013-06-10 08:53:00
5:35 AM,69.8,64.4,83,30.05,10.0,SW,5.8,-,N/A,,Overcast,220,2013-06-10 09:35:00
5:53 AM,69.1,64.9,87,30.01,10.0,SW,5.8,-,N/A,,Overcast,230,2013-06-10 09:53:00
6:21 AM,68.0,66.2,94,30.05,7.0,SW,5.8,-,0.00,Rain,Light Rain,230,2013-06-10 10:21:00
6:53 AM,68.0,66.0,93,30.02,10.0,SSW,5.8,-,0.00,,Overcast,210,2013-06-10 10:53:00
7:02 AM,69.8,66.2,88,30.06,10.0,South,5.8,-,N/A,,Overcast,190,2013-06-10 11:02:00
7:17 AM,69.8,66.2,88,30.06,10.0,SSW,4.6,-,N/A,,Overcast,210,2013-06-10 11:17:00
7:38 AM,69.8,66.2,88,30.06,4.0,SSW,6.9,-,0.00,Rain,Light Rain,200,2013-06-10 11:38:00
7:42 AM,69.8,66.2,88,30.06,2.0,SSW,5.8,-,0.01,Rain,Light Rain,200,2013-06-10 11:42:00
7:45 AM,69.8,66.2,88,30.06,1.5,SSW,6.9,-,0.01,Rain,Light Rain,210,2013-06-10 11:45:00
7:47 AM,69.8,66.2,88,30.06,1.8,SSW,5.8,-,0.01,Rain,Light Rain,210,2013-06-10 11:47:00
7:49 AM,69.8,66.2,88,30.06,2.0,SW,4.6,-,0.01,Rain,Light Rain,220,2013-06-10 11:49:00
7:51 AM,69.8,66.2,88,30.06,3.0,SSW,4.6,-,0.01,Rain,Light Rain,210,2013-06-10 11:51:00
7:53 AM,69.1,66.9,93,30.03,4.0,SW,4.6,-,0.01,,Overcast,220,2013-06-10 11:53:00
8:24 AM,69.8,66.2,88,30.07,2.0,SW,5.8,-,0.01,Rain,Light Rain,220,2013-06-10 12:24:00
8:31 AM,69.8,66.2,88,30.06,2.0,SW,5.8,-,0.02,Rain,Light Rain,220,2013-06-10 12:31:00
8:35 AM,69.8,66.2,88,30.06,3.0,Variable,5.8,-,0.02,Rain,Light Rain,0,2013-06-10 12:35:00
8:53 AM,70.0,66.9,90,30.03,10.0,SW,9.2,-,0.02,Rain,Light Rain,230,2013-06-10 12:53:00
9:09 AM,69.8,66.2,88,30.06,10.0,SW,4.6,-,0.00,Rain,Light Rain,220,2013-06-10 13:09:00
9:53 AM,71.1,68.0,90,30.02,10.0,SSW,5.8,-,0.00,Rain,Light Rain,210,2013-06-10 13:53:00
10:53 AM,71.1,68.0,90,30.02,10.0,SW,9.2,-,0.00,,Overcast,220,2013-06-10 14:53:00
11:14 AM,71.6,68.0,88,30.06,10.0,SSW,10.4,17.3,0.00,Rain,Light Rain,210,2013-06-10 15:14:00
11:33 AM,68.0,60.8,78,30.11,1.0,West,18.4,31.1,0.17,Rain,Light Rain,260,2013-06-10 15:33:00
11:35 AM,66.2,60.8,83,30.10,0.8,West,12.7,31.1,0.20,Rain,Heavy Rain,260,2013-06-10 15:35:00
11:45 AM,64.4,62.6,94,30.09,1.5,WSW,8.1,-,0.27,Rain,Light Rain,250,2013-06-10 15:45:00
11:47 AM,64.4,62.6,94,30.09,2.5,WSW,8.1,-,0.27,Rain,Light Rain,250,2013-06-10 15:47:00
11:53 AM,64.9,62.1,90,30.04,4.0,West,6.9,-,0.28,Rain,Rain,260,2013-06-10 15:53:00
12:27 PM,66.2,62.6,88,30.07,10.0,West,10.4,-,0.02,Rain,Light Rain,260,2013-06-10 16:27:00
12:35 PM,66.2,62.6,88,30.06,2.0,WSW,6.9,-,0.06,Rain,Rain,250,2013-06-10 16:35:00
12:43 PM,66.2,62.6,88,30.07,2.5,SW,8.1,-,0.06,Rain,Light Rain,230,2013-06-10 16:43:00
12:50 PM,66.2,64.4,94,30.08,10.0,WSW,10.4,-,0.07,Rain,Light Rain,250,2013-06-10 16:50:00
12:53 PM,66.9,64.0,90,30.04,10.0,WSW,10.4,-,0.07,Rain,Light Rain,240,2013-06-10 16:53:00
1:00 PM,66.2,64.4,94,30.07,10.0,WSW,9.2,-,0.00,Rain,Light Rain,250,2013-06-10 17:00:00
1:31 PM,69.8,64.4,83,30.05,10.0,West,10.4,-,0.00,,Mostly Cloudy,260,2013-06-10 17:31:00
1:48 PM,71.6,66.2,83,30.06,10.0,WNW,9.2,-,0.00,,Mostly Cloudy,290,2013-06-10 17:48:00
1:53 PM,71.1,64.9,81,30.02,10.0,West,9.2,-,0.00,,Mostly Cloudy,280,2013-06-10 17:53:00
2:21 PM,73.4,64.4,73,30.06,10.0,West,9.2,-,N/A,,Scattered Clouds,260,2013-06-10 18:21:00
2:53 PM,73.9,64.9,73,30.01,10.0,WSW,9.2,-,N/A,,Clear,250,2013-06-10 18:53:00
3:53 PM,75.0,66.0,73,30.00,10.0,West,9.2,-,N/A,,Clear,260,2013-06-10 19:53:00
4:53 PM,75.9,64.9,69,29.98,10.0,SW,10.4,-,N/A,,Partly Cloudy,220,2013-06-10 20:53:00
5:53 PM,77.0,66.9,71,29.98,10.0,SSW,4.6,-,N/A,,Clear,200,2013-06-10 21:53:00
6:12 PM,75.2,68.0,78,30.01,10.0,South,9.2,-,N/A,,Mostly Cloudy,190,2013-06-10 22:12:00
6:37 PM,75.2,66.2,73,30.00,10.0,South,6.9,-,N/A,,Scattered Clouds,190,2013-06-10 22:37:00
6:53 PM,75.9,68.0,76,29.96,10.0,South,8.1,-,N/A,,Partly Cloudy,180,2013-06-10 22:53:00
7:07 PM,75.2,68.0,78,30.00,10.0,Variable,6.9,-,N/A,,Mostly Cloudy,0,2013-06-10 23:07:00
7:34 PM,75.2,66.2,73,30.00,10.0,South,5.8,-,N/A,,Scattered Clouds,170,2013-06-10 23:34:00
7:53 PM,75.0,66.9,76,29.95,10.0,South,4.6,-,N/A,,Partly Cloudy,190,2013-06-10 23:53:00
8:53 PM,72.0,66.9,84,29.96,10.0,SSE,3.5,-,N/A,,Partly Cloudy,160,2013-06-11 00:53:00
9:53 PM,71.1,66.9,87,29.99,10.0,Calm,Calm,-,N/A,,Clear,0,2013-06-11 01:53:00
10:53 PM,71.1,68.0,90,30.00,10.0,SSW,8.1,-,N/A,,Partly Cloudy,210,2013-06-11 02:53:00
11:53 PM,70.0,68.0,93,30.02,10.0,South,6.9,-,N/A,,Overcast,180,2013-06-11 03:53:00